This is the latest recevied weather packets stored in our database for station/object K0SNA. If no packets are shown the sender has not sent any weather packets the latest 10 day(s).
| Time | Temp. | Humidity | Pressure | Rain* | Wind** | Luminosity | Snow |
|---|---|---|---|---|---|---|---|
| 1777911830 | 16.11° C | 39% | 999.2 hPa | 0 mm | - | 584 W/m² | - |
| 1777911527 | 16.67° C | 42% | 999.2 hPa | 0 mm | - | 384 W/m² | - |
| 1777911223 | 16.67° C | 40% | 998.9 hPa | 0 mm | - | 697 W/m² | - |
| 1777910921 | 16.11° C | 41% | 999.3 hPa | 0 mm | - | 679 W/m² | - |
| 1777910618 | 16.11° C | 41% | 999.2 hPa | 0 mm | - | 547 W/m² | - |
| 1777910314 | 16.11° C | 40% | 999 hPa | 0 mm | - | 524 W/m² | - |
| 1777910012 | 16.67° C | 40% | 999 hPa | 0 mm | - | 575 W/m² | - |
| 1777909709 | 16.67° C | 43% | 999.1 hPa | 0 mm | - | 576 W/m² | - |
| 1777909406 | 16.67° C | 42% | 998.9 hPa | 0 mm | - | 572 W/m² | - |
| 1777909104 | 16.11° C | 42% | 999 hPa | 0 mm | - | 538 W/m² | - |
| 1777908801 | 16.11° C | 43% | 999 hPa | 0 mm | - | 522 W/m² | - |
| 1777908498 | 16.11° C | 42% | 998.8 hPa | 0 mm | - | 516 W/m² | - |
| 1777908195 | 16.11° C | 43% | 998.8 hPa | 0 mm | - | 508 W/m² | - |
| 1777907891 | 16.11° C | 43% | 998.7 hPa | 0 mm | - | 508 W/m² | - |
| 1777907586 | 16.11° C | 41% | 999.1 hPa | 0 mm | - | 476 W/m² | - |
| 1777907282 | 16.11° C | 41% | 998.9 hPa | 0 mm | - | 523 W/m² | - |
| 1777906979 | 16.11° C | 42% | 998.9 hPa | 0 mm | - | 512 W/m² | - |
| 1777906677 | 15.56° C | 42% | 999 hPa | 0 mm | - | 394 W/m² | - |
| 1777906373 | 15.56° C | 41% | 998.9 hPa | 0 mm | - | 348 W/m² | - |
| 1777906070 | 15.56° C | 41% | 998.9 hPa | 0 mm | - | 405 W/m² | - |
| 1777905766 | 15.56° C | 41% | 998.9 hPa | 0 mm | - | 368 W/m² | - |
| 1777905463 | 15.56° C | 41% | 998.9 hPa | 0 mm | - | 346 W/m² | - |
| 1777905161 | 15.56° C | 40% | 998.8 hPa | 0 mm | - | 280 W/m² | - |
| 1777904858 | 15.56° C | 41% | 998.8 hPa | 0 mm | - | 260 W/m² | - |
| 1777904555 | 15.56° C | 40% | 998.9 hPa | 0 mm | - | 387 W/m² | - |
* Rain latest hour (hover to see other rain measurements)
** Current wind speed in m/s (hover to see current wind gust speed)